Regional Weather Roundup
Issued by NWS

Home | Current Version | Previous Version | Text Only | Print | Product List | Glossary Off
Versions: 1 2 3 4 5 6 7 8 9 10 11 12 13 14 15 16 17 18 19 20 21 22 23 24 25 26 27 28 29 30 31 32 33 34 35 36 37 38 39 40 41 42 43 44 45 46 47 48 49 50

000
ASUS43 KLOT 240809
RWRIL

ILLINOIS REGIONAL WEATHER ROUNDUP
NATIONAL WEATHER SERVICE CHICAGO/ROMEOVILLE IL
300 AM CDT SAT JUN 24 2017

NOTE: "FAIR" INDICATES FEW OR NO CLOUDS BELOW 12,000 FEET WITH NO
SIGNIFICANT WEATHER AND/OR OBSTRUCTIONS TO VISIBILITY.

* THESE STATIONS ARE NOT UNDER NWS QUALITY CONTROL. THEY ALSO MAY NOT
  REPORT WEATHER SUCH AS PRECIPITATION OR FOG.

ILZ001-002-007-009-015-016-024-240900-
NORTHWEST ILLINOIS

CITY           SKY/WX    TMP DP  RH WIND       PRES   REMARKS
MOLINE         PTCLDY    64  54  69 NW13G23   29.95S
STERLING*      CLEAR     61  56  83 W12       29.93S
SAVANNA*       CLEAR     63  55  75 W9G16     29.94R
$$

ILZ003-004-008-010-011-017-018-240900-
NORTH CENTRAL ILLINOIS

CITY           SKY/WX    TMP DP  RH WIND       PRES   REMARKS
ROCKFORD       CLEAR     62  55  77 NW8       29.91S
FREEPORT*      CLEAR     59  54  83 W7        29.94R
ROCHELLE*      PTCLDY    60  55  84 W9        29.91S
DE KALB*       PTCLDY    60  56  84 W10       29.90S
PERU*          CLEAR     60  55  83 W8        29.93R
$$

ILZ005-006-012>014-019>023-240900-
NORTHEAST ILLINOIS

CITY           SKY/WX    TMP DP  RH WIND       PRES   REMARKS
CHICAGO-OHARE  PTCLDY    64  55  72 W12       29.87S
CHICAGO-MIDWAY PTCLDY    65  55  70 W10       29.87S
AURORA         PTCLDY    60  57  89 W8        29.90S
LANSING*       CLEAR     63  53  69 W7        29.89R
JOLIET*        CLEAR     63  58  83 CALM      29.89S
WAUKEGAN       PTCLDY    61  55  81 VRB6      29.85S
DUPAGE AIRPORT CLEAR     62  57  83 NW12      29.88S
WHEELING       PTCLDY    63  57  81 W9        29.88S
MORRIS*        CLEAR     59  56  90 W7        29.89S
ROMEOVILLE*    CLEAR     62  55  77 NW10      29.89S
NORTHERLY ISL    N/A     66  53  63 W5          N/A
$$

LMZ740>746-240900-
SOUTHERN LAKE MICHIGAN

STATION/POSITION SKY/WX   TEMP    WIND        PRES    VSBY  WAVE
                          AIR SEA DIR/SP/G                  HT/PER
                          (F)     (DEG/KT/KT) (MB)    (MI)  (FT/S)
SOUTHERN BUOY              64 62  300/ 12/ 14 1009.7          2/ 4
WILMETTE HARBOR            65 64  280/ 14/ 16   N/A           1/ 2
HARRISON CRIB              67     280/ 14/ 16   N/A
BURNHAM HARBOR             66                   N/A
CALUMET HARBOR             66     270/  4/  9 1011.2R
BURNS HARBOR               67     280/ 12/ 14 1011.9R
MICHIGAN CITY              67     270/ 19/ 21   N/A
MICHIGAN CITY 6N           67 68  290/ 14/ 17   N/A           3/ 4
ST. JOSEPH                 67 68  310/ 16/ 19 1010.8          3/ 4
$$

ILZ025>027-034>036-040-047-049-050-058-095>099-240900-
WEST-CENTRAL ILLINOIS

CITY           SKY/WX    TMP DP  RH WIND       PRES   REMARKS
QUINCY         CLEAR     61  56  83 W6        30.01R
GALESBURG*     CLEAR     59  55  86 W7        29.98R
MACOMB*        CLEAR     58  55  89 W7        30.01R
JACKSONVILLE*  CLEAR     61  55  79 W6        30.00R
PITTSFIELD*    CLEAR     63  57  80 W3        30.02S
$$

ILZ028>032-037-038-041>044-048-051>054-059>061-240900-
CENTRAL ILLINOIS

CITY           SKY/WX    TMP DP  RH WIND       PRES   REMARKS
PONTIAC        CLEAR     62  60  91 W9        29.94R
BLOOMINGTON    PTCLDY    62  55  77 W9        29.97R
DECATUR        CLEAR     64  55  72 NW8       29.97R
PEORIA         PTCLDY    62  56  80 W6        29.96R
LACON*         CLEAR     62  56  81 NW10      29.94R
LINCOLN*       PTCLDY    64  57  77 CALM      29.97S
SPRINGFIELD    CLEAR     60  57  89 SW6       29.98S
TAYLORVILLE    CLEAR     62  56  81 W6        29.98S
$$

ILZ033-039-045-046-055>057-062-063-240900-
EAST-CENTRAL ILLINOIS

CITY           SKY/WX    TMP DP  RH WIND       PRES   REMARKS
CHAMPAIGN      PTCLDY    58  54  86 W6        29.96R
RANTOUL*       CLEAR     62  58  88 W6        29.95R
MATTOON        CLOUDY    62  57  83 NW9       29.94S
PARIS*         MOCLDY    60  58  91 W6        29.95R
$$

ILZ079-100>102-240900-
SOUTHWEST ILLINOIS

CITY           SKY/WX    TMP DP  RH WIND       PRES   REMARKS
ALTON          CLEAR     64  57  77 NW6       30.00R
BELLEVILLE     CLEAR     63  55  75 NW6       30.00R
CAHOKIA*       CLEAR     69  54  58 NW9       30.00R
SPARTA*        PTCLDY    66  55  69 NW3       30.01R
$$

ILZ064>066-069>071-074>076-080>082-084>086-088>090-092>094-240900-
SOUTH-CENTRAL ILLINOIS

CITY           SKY/WX    TMP DP  RH WIND       PRES   REMARKS
CARBONDALE     MOCLDY    65  61  87 NW5       29.99R
CAIRO*         CLOUDY    69  61  76 NW9       29.97R
EFFINGHAM*     CLOUDY    63  59  85 W5        29.98R
MARION         CLOUDY    68  63  83 CALM      29.99R
MT. VERNON     CLOUDY    65  58  78 CALM      29.98R
CENTRALIA*     CLOUDY    63  60  88 NW5       29.98R
SALEM*         CLOUDY    64  58  81 CALM      29.98R
METROPOLIS*    CLOUDY    68  61  78 NW6       29.97R
$$

ILZ067-068-072-073-078-083-087-091-240900-
SOUTHEAST ILLINOIS

CITY           SKY/WX    TMP DP  RH WIND       PRES   REMARKS
LAWRENCEVILLE  PTCLDY    64  61  90 NW6       29.95R
FLORA*         MOCLDY    66  58  75 NW5       29.97R
FAIRFIELD*     PTCLDY    66  58  76 CALM      29.96R
HARRISBURG*    CLOUDY    67  61  81 N5        29.97S
ROBINSON*      MOCLDY    62  59  88 NW3       29.96R
CARMI*         CLOUDY    65  61  85 NW6       29.96R
$$

ABBREVIATIONS USED IN REMARKS
   TC - TEMPERATURE IN CELSIUS
  WCI - WIND CHILL INDEX
   HX - HEAT INDEX
  VSB - VISIBILITY
$$





USA.gov is the U.S. government's official web portal to all federal, state and local government web resources and services.